QPF
0.00 0.00 0.00 0.00 0.00 0.01 0.01 0.02 0.02 0.01 0.01 0.01 0.01 0.01 0.01 0.01 0.02 0.04 0.06 0.03 0.01 0.01 0.01 0.01 0.00 0.01 0.02 0.02 0.01 0.01 0.01 0.01 0.01 0.01 0.02 0.01 0.01 0.01 0.01 0.01 0.01 0.01 0.01 0.01
0.00 0.00 0.00 0.00 0.00 0.00 0.01 0.01 0.01 0.01 0.01 0.01 0.01 0.00 0.01 0.01 0.02 0.04 0.06 0.03 0.01 0.01 0.01 0.01 0.01 0.01 0.03 0.03 0.01 0.01 0.01 0.01 0.01 0.01 0.01 0.00 0.01 0.01 0.01 0.01 0.01 0.01 0.01 0.01
0.01 0.00 0.01 0.01 0.01 0.00 0.01 0.01 0.01 0.01 0.01 0.01 0.01 0.01 0.01 0.02 0.03 0.04 0.05 0.04 0.02 0.02 0.01 0.01 0.01 0.01 0.03 0.03 0.02 0.01 0.01 0.01 0.01 0.01 0.00 0.00 0.00 0.01 0.01 0.01 0.01 0.01 0.01 0.02
0.01 0.01 0.01 0.01 0.01 0.01 0.01 0.02 0.02 0.01 0.01 0.01 0.01 0.01 0.01 0.01 0.02 0.06 0.05 0.04 0.04 0.03 0.02 0.02 0.02 0.01 0.04 0.03 0.01 0.01 0.01 0.01 0.01 0.01 0.00 0.00 0.00 0.01 0.01 0.01 0.01 0.01 0.01 0.01
0.02 0.03 0.02 0.01 0.01 0.02 0.01 0.01 0.01 0.01 0.02 0.02 0.02 0.01 0.01 0.01 0.02 0.03 0.02 0.03 0.04 0.04 0.03 0.04 0.03 0.02 0.03 0.03 0.01 0.01 0.01 0.01 0.01 0.01 0.01 0.01 0.01 0.02 0.02 0.02 0.02 0.02 0.01 0.01
0.03 0.03 0.03 0.02 0.01 0.01 0.01 0.02 0.01 0.02 0.02 0.02 0.01 0.01 0.01 0.01 0.01 0.00 0.00 0.01 0.01 0.02 0.03 0.04 0.03 0.03 0.03 0.02 0.02 0.02 0.02 0.02 0.03 0.02 0.01 0.02 0.01 0.02 0.03 0.04 0.04 0.03 0.02 0.01
0.02 0.02 0.01 0.01 0.02 0.01 0.02 0.02 0.01 0.01 0.00 0.00 0.00 0.01 0.01 0.00 0.00 0.00 0.00 0.00 0.01 0.01 0.02 0.02 0.02 0.02 0.02 0.02 0.02 0.02 0.02 0.03 0.03 0.02 0.02 0.02 0.03 0.04 0.04 0.04 0.05 0.05 0.04 0.02
0.01 0.02 0.01 0.01 0.02 0.03 0.03 0.02 0.01 0.01 0.00 0.00 0.00 0.00 0.00 0.00 0.00 0.00 0.00 0.00 0.00 0.01 0.01 0.02 0.01 0.01 0.01 0.02 0.01 0.01 0.02 0.03 0.03 0.03 0.02 0.02 0.03 0.03 0.05 0.05 0.05 0.04 0.03 0.02
0.02 0.02 0.01 0.01 0.02 0.02 0.03 0.03 0.02 0.01 0.01 0.00 0.00 0.00 0.00 0.00 0.00 0.00 0.00 0.00 0.01 0.01 0.01 0.01 0.02 0.02 0.01 0.01 0.01 0.01 0.01 0.02 0.02 0.02 0.01 0.02 0.03 0.02 0.03 0.04 0.04 0.03 0.02 0.01
0.01 0.01 0.00 0.01 0.01 0.01 0.02 0.02 0.02 0.02 0.01 0.01 0.01 0.00 0.00 0.00 0.00 0.00 0.00 0.00 0.01 0.01 0.01 0.01 0.01 0.02 0.02 0.02 0.02 0.02 0.02 0.02 0.02 0.03 0.02 0.01 0.02 0.03 0.03 0.03 0.03 0.03 0.02 0.01
0.01 0.00 0.00 0.00 0.01 0.01 0.01 0.01 0.01 0.01 0.01 0.01 0.01 0.00 0.00 0.00 0.01 0.01 0.01 0.01 0.01 0.01 0.02 0.02 0.02 0.03 0.03 0.03 0.03 0.02 0.02 0.02 0.02 0.02 0.02 0.01 0.01 0.02 0.03 0.03 0.03 0.03 0.03 0.02
0.01 0.00 0.01 0.00 0.01 0.01 0.00 0.01 0.01 0.01 0.01 0.01 0.01 0.00 0.00 0.00 0.01 0.01 0.01 0.01 0.01 0.01 0.01 0.01 0.02 0.02 0.03 0.03 0.03 0.02 0.02 0.01 0.01 0.02 0.02 0.01 0.01 0.01 0.02 0.02 0.03 0.03 0.03 0.03
0.00 0.00 0.00 0.00 0.01 0.01 0.00 0.00 0.01 0.01 0.01 0.01 0.01 0.01 0.00 0.00 0.01 0.01 0.02 0.02 0.02 0.02 0.01 0.01 0.01 0.01 0.02 0.02 0.02 0.02 0.02 0.02 0.02 0.01 0.02 0.02 0.02 0.01 0.02 0.02 0.02 0.02 0.02 0.02
0.00 0.00 0.00 0.00 0.00 0.01 0.00 0.00 0.00 0.00 0.00 0.00 0.00 0.00 0.01 0.01 0.02 0.01 0.01 0.02 0.03 0.03 0.02 0.02 0.02 0.02 0.02 0.02 0.02 0.01 0.01 0.01 0.01 0.01 0.02 0.02 0.03 0.03 0.03 0.04 0.04 0.03 0.02 0.02
0.00 0.00 0.00 0.00 0.00 0.01 0.01 0.00 0.00 0.00 0.00 0.00 0.00 0.01 0.01 0.01 0.02 0.02 0.02 0.02 0.03 0.04 0.05 0.04 0.03 0.02 0.02 0.02 0.02 0.01 0.01 0.01 0.01 0.01 0.01 0.02 0.02 0.03 0.04 0.04 0.04 0.04 0.03 0.03
0.00 0.00 0.00 0.00 0.01 0.01 0.01 0.00 0.00 0.00 0.00 0.01 0.01 0.00 0.00 0.00 0.02 0.02 0.02 0.03 0.04 0.05 0.06 0.05 0.04 0.04 0.02 0.02 0.01 0.01 0.01 0.01 0.02 0.01 0.01 0.01 0.02 0.02 0.03 0.03 0.04 0.03 0.03 0.02
0.00 0.00 0.00 0.00 0.00 0.01 0.01 0.00 0.00 0.00 0.01 0.01 0.01 0.01 0.01 0.01 0.01 0.02 0.03 0.03 0.04 0.05 0.05 0.05 0.04 0.03 0.03 0.02 0.02 0.01 0.01 0.01 0.02 0.02 0.02 0.02 0.02 0.02 0.03 0.03 0.03 0.03 0.03 0.04
0.00 0.00 0.00 0.00 0.00 0.01 0.01 0.00 0.00 0.01 0.01 0.01 0.01 0.01 0.00 0.00 0.01 0.01 0.02 0.03 0.03 0.04 0.04 0.03 0.03 0.02 0.02 0.02 0.02 0.02 0.02 0.02 0.02 0.02 0.03 0.03 0.02 0.02 0.02 0.03 0.03 0.03 0.03 0.04
0.00 0.00 0.00 0.00 0.00 0.00 0.00 0.00 0.00 0.00 0.00 0.00 0.00 0.00 0.00 0.00 0.00 0.01 0.01 0.02 0.03 0.03 0.03 0.02 0.02 0.02 0.02 0.02 0.02 0.02 0.02 0.02 0.02 0.02 0.02 0.02 0.02 0.02 0.02 0.03 0.03 0.03 0.03 0.03
0.00 0.00 0.00 0.00 0.00 0.00 0.00 0.00 0.01 0.00 0.00 0.00 0.01 0.00 0.00 0.00 0.00 0.01 0.01 0.02 0.03 0.03 0.02 0.02 0.02 0.02 0.02 0.02 0.03 0.02 0.02 0.02 0.02 0.02 0.01 0.01 0.02 0.02 0.02 0.03 0.03 0.03 0.03 0.03
0.00 0.00 0.00 0.00 0.00 0.00 0.00 0.00 0.00 0.00 0.00 0.00 0.00 0.00 0.00 0.00 0.00 0.00 0.00 0.01 0.01 0.01 0.01 0.01 0.01 0.01 0.02 0.02 0.02 0.02 0.02 0.02 0.02 0.02 0.02 0.02 0.02 0.01 0.01 0.02 0.02 0.02 0.02 0.03
0.00 0.00 0.00 0.00 0.00 0.00 0.00 0.00 0.00 0.00 0.00 0.00 0.00 0.00 0.00 0.00 0.00 0.00 0.00 0.00 0.00 0.00 0.00 0.00 0.00 0.01 0.01 0.01 0.01 0.01 0.02 0.02 0.02 0.01 0.01 0.02 0.02 0.02 0.01 0.01 0.02 0.02 0.02 0.02
0.00 0.00 0.00 0.00 0.00 0.00 0.00 0.00 0.00 0.00 0.00 0.00 0.00 0.00 0.00 0.00 0.00 0.00 0.00 0.00 0.00 0.00 0.00 0.00 0.00 0.01 0.01 0.01 0.01 0.01 0.01 0.01 0.01 0.01 0.01 0.01 0.01 0.01 0.01 0.01 0.01 0.02 0.02 0.02
0.00 0.00 0.00 0.00 0.00 0.00 0.00 0.00 0.00 0.00 0.00 0.00 0.00 0.00 0.00 0.00 0.00 0.00 0.00 0.00 0.00 0.00 0.00 0.00 0.00 0.00 0.01 0.01 0.01 0.01 0.01 0.01 0.01 0.01 0.01 0.01 0.01 0.01 0.01 0.01 0.01 0.01 0.01 0.02
0.00 0.00 0.00 0.00 0.00 0.00 0.00 0.00 0.00 0.00 0.00 0.00 0.00 0.00 0.00 0.00 0.00 0.00 0.00 0.00 0.00 0.00 0.00 0.00 0.00 0.00 0.00 0.00 0.01 0.01 0.01 0.01 0.01 0.01 0.01 0.01 0.01 0.01 0.01 0.01 0.00 0.01 0.01 0.01
0.00 0.00 0.00 0.00 0.00 0.00 0.00 0.00 0.00 0.00 0.00 0.00 0.00 0.00 0.00 0.00 0.00 0.00 0.00 0.00 0.00 0.00 0.00 0.00 0.00 0.00 0.00 0.00 0.00 0.01 0.01 0.01 0.01 0.01 0.01 0.01 0.01 0.00 0.01 0.01 0.01 0.01 0.01 0.01
0.00 0.01 0.00 0.00 0.00 0.00 0.00 0.00 0.01 0.01 0.01 0.00 0.00 0.00 0.00 0.00 0.00 0.00 0.00 0.00 0.00 0.00 0.00 0.00 0.00 0.01 0.01 0.01 0.01 0.01 0.01 0.01 0.01 0.01 0.01 0.01 0.01 0.01 0.01 0.01 0.01 0.01 0.01 0.01
MSLP
1012.72 1012.74 1012.77 1012.83 1012.94 1013.05 1013.13 1013.14 1013.03 1012.79 1012.43 1011.95 1011.41 1010.85 1010.32 1009.86 1009.48 1009.17 1008.91 1008.67 1008.40 1008.09 1007.72 1007.32 1006.92 1006.58 1006.34 1006.26 1006.36 1006.64 1007.08 1007.62 1008.23 1008.82 1009.35 1009.80 1010.14 1010.38 1010.56 1010.71 1010.85 1011.03 1011.25 1011.51
1013.09 1013.06 1013.04 1013.04 1013.08 1013.14 1013.20 1013.22 1013.19 1013.07 1012.86 1012.58 1012.24 1011.87 1011.51 1011.16 1010.83 1010.51 1010.17 1009.78 1009.32 1008.78 1008.16 1007.50 1006.84 1006.25 1005.79 1005.51 1005.44 1005.58 1005.93 1006.43 1007.02 1007.65 1008.25 1008.78 1009.22 1009.55 1009.82 1010.03 1010.21 1010.41 1010.64 1010.90
1013.44 1013.42 1013.40 1013.39 1013.42 1013.46 1013.52 1013.57 1013.59 1013.56 1013.48 1013.34 1013.15 1012.93 1012.69 1012.43 1012.14 1011.81 1011.42 1010.92 1010.32 1009.60 1008.78 1007.90 1007.01 1006.19 1005.49 1004.99 1004.71 1004.69 1004.89 1005.30 1005.85 1006.47 1007.11 1007.71 1008.24 1008.68 1009.04 1009.32 1009.57 1009.80 1010.04 1010.30
1013.74 1013.78 1013.81 1013.84 1013.89 1013.95 1014.02 1014.09 1014.14 1014.15 1014.13 1014.06 1013.95 1013.81 1013.64 1013.43 1013.18 1012.86 1012.44 1011.90 1011.22 1010.40 1009.45 1008.42 1007.36 1006.33 1005.42 1004.69 1004.20 1003.97 1003.99 1004.25 1004.70 1005.28 1005.93 1006.58 1007.19 1007.72 1008.17 1008.55 1008.86 1009.13 1009.39 1009.64
1013.98 1014.11 1014.22 1014.32 1014.42 1014.51 1014.60 1014.67 1014.71 1014.71 1014.68 1014.60 1014.50 1014.37 1014.21 1014.03 1013.79 1013.49 1013.09 1012.56 1011.88 1011.04 1010.05 1008.94 1007.77 1006.60 1005.50 1004.57 1003.85 1003.38 1003.19 1003.27 1003.58 1004.07 1004.67 1005.34 1006.00 1006.62 1007.16 1007.63 1008.02 1008.34 1008.62 1008.88
1014.17 1014.40 1014.61 1014.79 1014.96 1015.08 1015.17 1015.21 1015.20 1015.14 1015.03 1014.89 1014.72 1014.54 1014.35 1014.15 1013.93 1013.66 1013.31 1012.84 1012.22 1011.43 1010.47 1009.36 1008.14 1006.88 1005.64 1004.51 1003.57 1002.87 1002.44 1002.29 1002.42 1002.78 1003.31 1003.95 1004.64 1005.33 1005.96 1006.51 1006.98 1007.38 1007.70 1007.98
1014.35 1014.68 1014.98 1015.25 1015.46 1015.61 1015.68 1015.67 1015.58 1015.42 1015.19 1014.92 1014.64 1014.37 1014.11 1013.87 1013.65 1013.42 1013.14 1012.76 1012.25 1011.56 1010.69 1009.62 1008.41 1007.09 1005.74 1004.45 1003.29 1002.35 1001.67 1001.28 1001.20 1001.39 1001.81 1002.41 1003.10 1003.82 1004.53 1005.17 1005.73 1006.20 1006.59 1006.92
1014.56 1014.96 1015.34 1015.67 1015.92 1016.08 1016.12 1016.05 1015.86 1015.57 1015.21 1014.80 1014.38 1013.98 1013.64 1013.36 1013.13 1012.93 1012.71 1012.44 1012.04 1011.48 1010.71 1009.72 1008.54 1007.19 1005.76 1004.32 1002.96 1001.79 1000.86 1000.23 999.92 999.93 1000.22 1000.73 1001.40 1002.15 1002.91 1003.64 1004.29 1004.85 1005.32 1005.71
1014.83 1015.27 1015.69 1016.05 1016.32 1016.47 1016.48 1016.35 1016.07 1015.67 1015.17 1014.63 1014.08 1013.57 1013.14 1012.80 1012.55 1012.37 1012.22 1012.03 1011.74 1011.28 1010.61 1009.70 1008.55 1007.19 1005.68 1004.11 1002.58 1001.19 1000.03 999.16 998.63 998.45 998.59 999.01 999.64 1000.39 1001.20 1002.00 1002.74 1003.39 1003.95 1004.42
1015.14 1015.58 1016.00 1016.38 1016.65 1016.79 1016.78 1016.59 1016.25 1015.77 1015.18 1014.53 1013.89 1013.29 1012.79 1012.40 1012.13 1011.96 1011.84 1011.70 1011.48 1011.10 1010.50 1009.64 1008.51 1007.13 1005.56 1003.88 1002.20 1000.63 999.26 998.18 997.45 997.08 997.08 997.40 997.97 998.71 999.55 1000.40 1001.22 1001.96 1002.60 1003.16
1015.43 1015.84 1016.25 1016.61 1016.88 1017.01 1016.99 1016.79 1016.42 1015.90 1015.27 1014.59 1013.89 1013.25 1012.71 1012.28 1011.99 1011.81 1011.69 1011.58 1011.38 1011.03 1010.46 1009.62 1008.49 1007.09 1005.47 1003.70 1001.91 1000.19 998.66 997.41 996.51 995.99 995.87 996.08 996.59 997.30 998.14 999.02 999.89 1000.70 1001.41 1002.04
1015.66 1016.01 1016.38 1016.71 1016.97 1017.10 1017.08 1016.90 1016.55 1016.05 1015.45 1014.77 1014.09 1013.45 1012.90 1012.47 1012.16 1011.96 1011.82 1011.69 1011.48 1011.12 1010.53 1009.68 1008.54 1007.12 1005.47 1003.65 1001.79 999.99 998.36 997.00 995.99 995.35 995.12 995.25 995.68 996.35 997.17 998.05 998.94 999.77 1000.53 1001.20
1015.75 1016.03 1016.35 1016.65 1016.89 1017.02 1017.03 1016.89 1016.60 1016.17 1015.63 1015.02 1014.40 1013.81 1013.29 1012.86 1012.55 1012.32 1012.15 1011.97 1011.72 1011.32 1010.71 1009.84 1008.68 1007.26 1005.61 1003.79 1001.93 1000.11 998.45 997.04 995.97 995.27 994.95 995.01 995.38 995.99 996.75 997.60 998.47 999.30 1000.06 1000.74
1015.67 1015.89 1016.15 1016.41 1016.63 1016.78 1016.82 1016.73 1016.51 1016.18 1015.74 1015.23 1014.70 1014.18 1013.71 1013.31 1013.00 1012.75 1012.54 1012.31 1012.01 1011.56 1010.92 1010.03 1008.89 1007.49 1005.89 1004.13 1002.32 1000.56 998.94 997.56 996.49 995.76 995.41 995.41 995.71 996.25 996.95 997.73 998.54 999.32 1000.04 1000.68
1015.45 1015.61 1015.82 1016.04 1016.24 1016.39 1016.45 1016.42 1016.28 1016.03 1015.69 1015.30 1014.86 1014.43 1014.02 1013.66 1013.35 1013.09 1012.84 1012.56 1012.21 1011.73 1011.07 1010.19 1009.09 1007.77 1006.26 1004.63 1002.94 1001.30 999.80 998.50 997.49 996.79 996.43 996.39 996.63 997.08 997.69 998.39 999.11 999.81 1000.45 1001.02
1015.15 1015.26 1015.42 1015.60 1015.78 1015.91 1015.99 1015.99 1015.90 1015.72 1015.47 1015.16 1014.81 1014.45 1014.10 1013.77 1013.47 1013.19 1012.91 1012.61 1012.22 1011.72 1011.08 1010.25 1009.23 1008.02 1006.67 1005.20 1003.71 1002.25 1000.91 999.75 998.84 998.20 997.86 997.80 997.98 998.36 998.87 999.46 1000.07 1000.66 1001.20 1001.68
1014.84 1014.93 1015.06 1015.20 1015.34 1015.45 1015.51 1015.51 1015.43 1015.29 1015.08 1014.82 1014.52 1014.21 1013.89 1013.59 1013.29 1013.00 1012.71 1012.38 1011.99 1011.51 1010.90 1010.15 1009.25 1008.20 1007.03 1005.79 1004.51 1003.28 1002.14 1001.16 1000.38 999.83 999.52 999.46 999.59 999.88 1000.30 1000.77 1001.26 1001.74 1002.17 1002.55
1014.61 1014.70 1014.81 1014.92 1015.01 1015.07 1015.08 1015.05 1014.95 1014.79 1014.59 1014.34 1014.05 1013.75 1013.45 1013.14 1012.84 1012.55 1012.24 1011.91 1011.53 1011.09 1010.55 1009.90 1009.14 1008.28 1007.32 1006.31 1005.28 1004.28 1003.36 1002.57 1001.93 1001.48 1001.22 1001.15 1001.25 1001.47 1001.79 1002.15 1002.54 1002.90 1003.23 1003.51
1014.51 1014.62 1014.71 1014.79 1014.83 1014.83 1014.78 1014.68 1014.52 1014.32 1014.07 1013.79 1013.49 1013.17 1012.85 1012.53 1012.22 1011.91 1011.61 1011.29 1010.93 1010.54 1010.08 1009.56 1008.95 1008.27 1007.53 1006.75 1005.96 1005.19 1004.48 1003.86 1003.36 1003.01 1002.80 1002.73 1002.79 1002.96 1003.19 1003.47 1003.76 1004.04 1004.29 1004.50
1014.54 1014.67 1014.76 1014.81 1014.81 1014.74 1014.61 1014.43 1014.20 1013.92 1013.61 1013.28 1012.93 1012.58 1012.23 1011.89 1011.56 1011.25 1010.94 1010.64 1010.33 1009.99 1009.62 1009.21 1008.76 1008.25 1007.71 1007.13 1006.55 1005.98 1005.45 1004.99 1004.62 1004.34 1004.18 1004.12 1004.16 1004.27 1004.45 1004.66 1004.88 1005.09 1005.29 1005.45
1014.65 1014.80 1014.89 1014.92 1014.87 1014.74 1014.54 1014.28 1013.98 1013.63 1013.25 1012.86 1012.46 1012.07 1011.70 1011.34 1011.00 1010.68 1010.39 1010.11 1009.83 1009.56 1009.27 1008.97 1008.64 1008.28 1007.90 1007.50 1007.09 1006.68 1006.31 1005.97 1005.70 1005.49 1005.36 1005.31 1005.34 1005.42 1005.56 1005.72 1005.90 1006.07 1006.23 1006.37
1014.74 1014.91 1015.01 1015.01 1014.93 1014.75 1014.50 1014.18 1013.82 1013.41 1012.99 1012.55 1012.12 1011.71 1011.32 1010.95 1010.61 1010.31 1010.03 1009.78 1009.55 1009.34 1009.13 1008.91 1008.69 1008.45 1008.19 1007.92 1007.65 1007.37 1007.10 1006.87 1006.66 1006.51 1006.41 1006.38 1006.40 1006.47 1006.58 1006.72 1006.87 1007.03 1007.18 1007.31
1014.75 1014.93 1015.01 1015.00 1014.90 1014.70 1014.41 1014.07 1013.67 1013.24 1012.80 1012.35 1011.92 1011.50 1011.11 1010.76 1010.44 1010.16 1009.92 1009.71 1009.52 1009.36 1009.22 1009.07 1008.93 1008.79 1008.63 1008.46 1008.28 1008.09 1007.91 1007.74 1007.60 1007.49 1007.42 1007.40 1007.42 1007.49 1007.59 1007.72 1007.87 1008.02 1008.17 1008.30
1014.61 1014.78 1014.86 1014.84 1014.72 1014.51 1014.23 1013.88 1013.49 1013.07 1012.65 1012.22 1011.81 1011.43 1011.07 1010.75 1010.47 1010.23 1010.03 1009.86 1009.73 1009.62 1009.53 1009.46 1009.38 1009.30 1009.22 1009.12 1009.01 1008.90 1008.78 1008.66 1008.57 1008.49 1008.45 1008.45 1008.48 1008.55 1008.66 1008.79 1008.94 1009.09 1009.23 1009.36
1014.32 1014.47 1014.53 1014.51 1014.39 1014.19 1013.93 1013.62 1013.26 1012.89 1012.51 1012.13 1011.78 1011.45 1011.15 1010.88 1010.65 1010.47 1010.32 1010.20 1010.12 1010.06 1010.03 1010.00 1009.99 1009.97 1009.94 1009.90 1009.85 1009.79 1009.72 1009.65 1009.59 1009.55 1009.54 1009.56 1009.61 1009.69 1009.80 1009.94 1010.08 1010.22 1010.36 1010.47
1013.89 1014.02 1014.07 1014.04 1013.94 1013.77 1013.55 1013.28 1012.99 1012.68 1012.37 1012.07 1011.78 1011.52 1011.29 1011.09 1010.92 1010.79 1010.70 1010.64 1010.61 1010.61 1010.62 1010.65 1010.68 1010.71 1010.74 1010.75 1010.75 1010.73 1010.71 1010.69 1010.67 1010.66 1010.67 1010.71 1010.78 1010.87 1010.98 1011.11 1011.24 1011.37 1011.48 1011.57
1013.40 1013.50 1013.54 1013.52 1013.44 1013.31 1013.14 1012.94 1012.72 1012.48 1012.25 1012.03 1011.82 1011.63 1011.47 1011.33 1011.23 1011.16 1011.12 1011.11 1011.13 1011.18 1011.24 1011.31 1011.40 1011.47 1011.55 1011.60 1011.65 1011.68 1011.70 1011.71 1011.72 1011.74 1011.78 1011.83 1011.91 1012.00 1012.11 1012.22 1012.33 1012.43 1012.50 1012.54
Thickness
5696 5703 5702 5699 5700 5701 5695 5693 5686 5689 5690 5694 5698 5699 5701 5704 5704 5703 5701 5701 5701 5699 5699 5698 5697 5696 5695 5694 5693 5692 5689 5686 5685 5685 5684 5682 5680 5678 5676 5674 5672 5670 5667 5665
5685 5695 5695 5692 5695 5695 5694 5693 5690 5689 5686 5694 5695 5696 5695 5695 5695 5693 5694 5695 5695 5695 5694 5693 5693 5692 5690 5689 5689 5688 5684 5683 5682 5681 5679 5677 5675 5673 5671 5668 5667 5665 5662 5660
5669 5682 5682 5676 5688 5688 5686 5688 5685 5677 5678 5686 5684 5684 5685 5685 5686 5685 5685 5687 5688 5687 5688 5688 5688 5688 5685 5685 5684 5682 5680 5678 5677 5675 5673 5672 5671 5668 5665 5663 5661 5659 5657 5655
5663 5664 5652 5676 5693 5689 5681 5681 5682 5681 5679 5679 5679 5679 5681 5681 5679 5678 5679 5679 5680 5681 5682 5683 5684 5683 5682 5681 5679 5676 5674 5673 5671 5670 5668 5667 5665 5662 5660 5659 5657 5654 5652 5650
5654 5649 5657 5673 5679 5678 5671 5668 5676 5673 5672 5672 5676 5674 5671 5676 5675 5673 5674 5675 5675 5676 5677 5677 5677 5677 5675 5673 5672 5670 5668 5667 5666 5665 5662 5660 5658 5657 5656 5654 5652 5650 5648 5646
5646 5639 5641 5659 5672 5678 5670 5654 5667 5667 5663 5664 5664 5653 5655 5667 5668 5667 5668 5668 5669 5670 5671 5669 5669 5669 5667 5665 5664 5662 5662 5662 5661 5659 5657 5655 5653 5652 5651 5649 5647 5645 5643 5641
5640 5638 5647 5659 5666 5666 5645 5643 5657 5658 5656 5656 5652 5650 5655 5660 5660 5660 5659 5660 5662 5662 5661 5660 5662 5661 5659 5657 5656 5656 5656 5656 5655 5654 5652 5650 5648 5646 5644 5643 5640 5638 5636 5635
5639 5633 5634 5655 5654 5646 5642 5649 5649 5648 5648 5648 5648 5650 5650 5650 5650 5651 5651 5652 5653 5652 5652 5653 5654 5653 5651 5650 5652 5652 5650 5649 5649 5648 5647 5645 5641 5639 5638 5636 5633 5631 5629 5627
5639 5635 5644 5649 5645 5645 5645 5641 5640 5639 5640 5639 5639 5639 5641 5641 5641 5642 5642 5642 5643 5642 5643 5644 5645 5644 5642 5643 5645 5645 5644 5642 5642 5641 5639 5638 5635 5632 5630 5629 5626 5624 5622 5620
5634 5637 5639 5640 5639 5638 5636 5633 5632 5632 5631 5631 5629 5630 5631 5633 5633 5633 5632 5632 5633 5633 5632 5633 5634 5635 5635 5636 5638 5637 5635 5635 5634 5633 5631 5630 5628 5626 5623 5621 5619 5618 5616 5613
5626 5629 5630 5630 5629 5628 5626 5625 5623 5623 5622 5622 5622 5622 5623 5623 5624 5624 5623 5623 5623 5622 5622 5622 5624 5625 5626 5627 5628 5627 5627 5626 5626 5625 5623 5621 5619 5617 5616 5615 5613 5611 5609 5608
5615 5622 5620 5619 5621 5620 5617 5615 5614 5613 5613 5614 5614 5613 5614 5615 5616 5615 5614 5613 5612 5612 5612 5613 5614 5614 5615 5617 5618 5618 5617 5617 5616 5616 5614 5613 5610 5608 5607 5606 5606 5604 5603 5601
5617 5619 5616 5615 5615 5613 5609 5608 5607 5606 5605 5605 5606 5607 5606 5606 5606 5605 5605 5603 5603 5603 5602 5603 5603 5603 5604 5606 5607 5607 5607 5607 5605 5605 5605 5604 5602 5600 5597 5596 5595 5594 5594 5593
5612 5609 5605 5605 5603 5603 5601 5600 5599 5598 5598 5598 5597 5597 5597 5596 5595 5594 5594 5594 5594 5594 5593 5593 5592 5592 5593 5594 5595 5596 5596 5596 5595 5594 5593 5593 5592 5591 5590 5588 5586 5584 5583 5583
5603 5601 5598 5598 5596 5595 5593 5591 5589 5588 5589 5589 5589 5587 5586 5585 5584 5584 5584 5585 5584 5583 5583 5583 5582 5581 5582 5582 5582 5583 5584 5584 5584 5583 5582 5581 5581 5580 5580 5579 5577 5576 5574 5572
5595 5594 5592 5590 5588 5586 5584 5582 5580 5580 5580 5580 5579 5578 5578 5576 5576 5576 5576 5576 5574 5573 5573 5572 5572 5572 5572 5571 5571 5571 5572 5572 5572 5571 5571 5570 5570 5569 5569 5567 5567 5566 5565 5564
5584 5582 5582 5581 5580 5579 5577 5576 5575 5574 5573 5572 5571 5570 5569 5568 5567 5566 5566 5566 5565 5565 5564 5563 5562 5562 5562 5561 5560 5559 5560 5561 5561 5560 5560 5560 5560 5559 5558 5557 5557 5556 5556 5555
5581 5579 5577 5576 5573 5571 5570 5569 5568 5567 5565 5565 5564 5562 5561 5559 5558 5557 5557 5557 5556 5555 5555 5554 5553 5552 5551 5550 5549 5548 5548 5549 5549 5548 5548 5548 5548 5548 5548 5547 5547 5546 5545 5545
5574 5572 5570 5570 5568 5565 5563 5562 5561 5560 5559 5557 5555 5553 5552 5551 5550 5549 5548 5547 5546 5544 5545 5545 5544 5543 5541 5540 5540 5539 5538 5537 5537 5537 5537 5537 5537 5537 5537 5536 5536 5536 5535 5535
5566 5564 5563 5561 5560 5558 5555 5554 5553 5551 5550 5549 5547 5545 5543 5542 5542 5541 5539 5538 5536 5536 5537 5536 5535 5533 5532 5532 5530 5529 5528 5527 5527 5526 5526 5525 5525 5524 5524 5524 5524 5524 5524 5524
5556 5555 5554 5552 5551 5549 5547 5546 5544 5542 5541 5540 5538 5536 5535 5534 5533 5532 5531 5529 5529 5528 5528 5527 5525 5524 5523 5522 5521 5519 5519 5518 5517 5516 5515 5514 5513 5513 5512 5512 5512 5512 5512 5512
5548 5546 5545 5543 5541 5540 5538 5537 5536 5535 5533 5532 5530 5529 5527 5525 5525 5524 5523 5521 5521 5520 5518 5517 5516 5515 5514 5513 5511 5510 5509 5508 5507 5505 5504 5503 5502 5501 5501 5501 5500 5500 5500 5500
5538 5537 5536 5534 5533 5531 5530 5528 5527 5526 5524 5523 5521 5520 5518 5516 5515 5514 5514 5514 5513 5511 5510 5508 5507 5507 5506 5504 5502 5501 5499 5498 5497 5496 5494 5493 5491 5490 5490 5490 5489 5489 5489 5489
5529 5528 5528 5527 5525 5523 5521 5520 5519 5518 5516 5515 5513 5512 5510 5508 5508 5508 5507 5506 5505 5503 5501 5500 5499 5499 5497 5495 5493 5492 5490 5489 5487 5486 5484 5483 5481 5480 5480 5480 5479 5479 5479 5479
5521 5520 5519 5518 5516 5514 5513 5512 5510 5508 5506 5505 5504 5503 5502 5500 5499 5499 5498 5497 5495 5494 5493 5492 5491 5490 5488 5487 5485 5483 5481 5479 5478 5476 5475 5473 5472 5471 5470 5470 5470 5470 5469 5469
5512 5511 5510 5509 5508 5505 5504 5502 5500 5498 5497 5495 5494 5493 5492 5491 5490 5490 5489 5488 5487 5485 5484 5483 5481 5480 5479 5478 5477 5474 5472 5471 5469 5467 5466 5464 5463 5462 5462 5461 5461 5461 5460 5460
5503 5502 5500 5499 5498 5497 5495 5492 5490 5488 5487 5485 5484 5483 5482 5481 5480 5479 5479 5478 5477 5476 5474 5473 5472 5471 5470 5469 5467 5465 5464 5462 5460 5458 5456 5455 5454 5453 5453 5452 5452 5452 5452 5452